Le nostre stazioni meteo in Italia

Pubblicità
Il mio iltempo24.it
Decimomannu, Italia (16546): Temperatura & dewpoint: 16.06.2017 22:00:00 - 22.06.2017 22:00:00 (CEST)Decimomannu, Italia (16546): velocità del vento: 16.06.2017 22:00:00 - 22.06.2017 22:00:00 (CEST)Decimomannu, Italia (16546): direzione del vento: 16.06.2017 22:00:00 - 22.06.2017 22:00:00 (CEST)Decimomannu, Italia (16546): reduced air pressure: 16.06.2017 22:00:00 - 22.06.2017 22:00:00 (CEST)Decimomannu, Italia (16546): visibility: 16.06.2017 22:00:00 - 22.06.2017 22:00:00 (CEST)
Data & Tempo tt [°C] td [°C] ff [km/h] ff [kn] dd ppp [hPa] vv [km]
22.06.2017 22:00:00 - - - - - - -
22.06.2017 21:00:00 26,0 20,0 11 6 SSE - 10
22.06.2017 20:00:00 29,0 19,0 13 7 SSE 1016,8 25
22.06.2017 19:00:00 30,0 17,0 18 10 SE - 10
22.06.2017 18:00:00 31,0 18,0 21 11 SSE - 10
22.06.2017 17:00:00 31,4 18,7 21 11 SSE 1017,2 25
22.06.2017 16:00:00 31,0 17,0 21 11 SSE - 10
22.06.2017 15:00:00 32,0 16,0 24 13 SSE - 10
22.06.2017 14:00:00 32,4 17,8 24 13 SSE 1017,9 25
22.06.2017 13:00:00 32,0 20,0 24 13 SSE - 10
22.06.2017 12:00:00 31,0 18,0 24 13 SSE - 10
22.06.2017 11:00:00 30,2 17,0 18 10 SSE 1018,1 25
22.06.2017 10:00:00 29,0 20,0 13 7 SSE - 10
22.06.2017 09:00:00 28,0 23,0 11 6 SSE - 10
22.06.2017 08:00:00 24,4 21,1 4 2 ENE 1017,1 25
22.06.2017 07:00:00 21,0 19,0 4 2 ESE - 10
22.06.2017 06:00:00 20,0 18,0 5 3 NNE - 10
22.06.2017 05:00:00 20,0 18,3 8 4 NNE 1016,9 20
22.06.2017 04:00:00 20,0 18,0 8 4 NNE - 10
22.06.2017 03:00:00 23,0 21,0 4 2 E - 10
22.06.2017 02:00:00 23,6 21,9 8 4 ESE 1016,8 20
22.06.2017 01:00:00 24,0 22,0 5 3 SE - 10
22.06.2017 00:00:00 24,0 22,0 11 6 SSE - 10
21.06.2017 23:00:00 24,0 22,3 18 10 SSE 1016,4 20
21.06.2017 22:00:00 25,0 23,0 22 12 SSE - 10
21.06.2017 21:00:00 25,0 23,0 18 10 SE - 10
21.06.2017 20:00:00 27,0 23,5 18 10 SE 1014,9 20
21.06.2017 19:00:00 28,0 23,0 22 12 SE - 10
21.06.2017 18:00:00 29,0 23,0 28 15 SE - 10
21.06.2017 17:00:00 29,4 22,9 26 14 SSE 1014,4 30
21.06.2017 16:00:00 30,0 21,0 28 15 SSE - 10
21.06.2017 15:00:00 31,0 21,0 28 15 SSE - 10
21.06.2017 14:00:00 31,0 21,2 29 16 SSE 1015,6 30
21.06.2017 13:00:00 31,0 23,0 24 13 SSE - 10
21.06.2017 12:00:00 32,0 17,0 18 10 SSE - 10
21.06.2017 11:00:00 31,0 17,7 9 5 S 1015,8 30
21.06.2017 10:00:00 28,0 20,0 5 3 E - 10
21.06.2017 09:00:00 26,0 22,0 4 2 NO - 10
21.06.2017 08:00:00 23,0 20,9 2 1 NNO 1016,5 25
21.06.2017 07:00:00 21,0 19,0 8 4 NNE - 10
21.06.2017 06:00:00 19,0 18,0 2 1 NNO - 10
21.06.2017 05:00:00 20,2 19,0 5 3 NNO 1016,5 15
21.06.2017 04:00:00 20,0 19,0 8 4 NNO - 10
21.06.2017 03:00:00 22,0 21,0 2 1 NO - 10
21.06.2017 02:00:00 21,6 20,6 8 4 NE 1016,8 25
21.06.2017 01:00:00 23,0 22,0 4 2 ENE - 10
21.06.2017 00:00:00 23,0 22,0 11 6 SE - 10
20.06.2017 23:00:00 23,8 22,6 11 6 SE 1018,4 15
20.06.2017 22:00:00 24,0 22,0 16 9 SE - 10
20.06.2017 21:00:00 25,0 23,0 13 7 SE - 10
20.06.2017 20:00:00 27,8 22,3 26 14 SSE 1017,3 20
20.06.2017 19:00:00 29,0 22,0 22 12 SSE - 10
20.06.2017 18:00:00 29,0 19,0 26 14 SSE - 10
20.06.2017 17:00:00 30,0 18,1 26 14 SSE 1017,8 20
20.06.2017 16:00:00 32,0 18,0 24 13 SSE - 10
20.06.2017 15:00:00 32,0 17,0 22 12 SSE - 10
20.06.2017 14:00:00 32,0 16,7 22 12 SSE 1019,4 20
20.06.2017 13:00:00 32,0 17,0 26 14 SSE - 10
20.06.2017 12:00:00 31,0 17,0 18 10 SSE - 10
20.06.2017 11:00:00 29,6 20,2 18 10 SSE 1020,1 20
20.06.2017 10:00:00 29,0 24,0 15 8 SSE - 10
20.06.2017 09:00:00 27,0 25,0 15 8 SSE - 10
20.06.2017 08:00:00 24,0 20,9 8 4 SE 1020,1 20
20.06.2017 07:00:00 20,0 19,0 2 1 NNE - 10
20.06.2017 06:00:00 19,0 18,0 5 3 SSO - 10
20.06.2017 05:00:00 20,0 19,0 4 2 NNE 1019,7 20
20.06.2017 04:00:00 21,0 20,0 5 3 NNE - 10
20.06.2017 03:00:00 22,0 20,0 9 5 E - 10
20.06.2017 02:00:00 22,0 20,7 9 5 E 1019,8 20
20.06.2017 01:00:00 22,0 21,0 8 4 E - 10
20.06.2017 00:00:00 23,0 21,0 8 4 ESE - 10
19.06.2017 23:00:00 23,8 21,7 9 5 SE 1019,8 20
19.06.2017 22:00:00 24,0 22,0 11 6 SE - 10
19.06.2017 21:00:00 25,0 19,0 15 8 SE - 10
19.06.2017 20:00:00 27,8 18,5 21 11 SE 1018,9 20
19.06.2017 19:00:00 29,0 18,0 26 14 SSE - 10
19.06.2017 18:00:00 30,0 18,0 24 13 SSE - 10
19.06.2017 17:00:00 30,8 19,2 28 15 SE 1018,7 20
19.06.2017 16:00:00 31,0 20,0 31 17 SSE - 10
19.06.2017 15:00:00 32,0 19,0 28 15 SSE - 10
19.06.2017 14:00:00 33,8 17,1 18 10 SSE 1018,7 20
19.06.2017 13:00:00 33,0 16,0 22 12 SSE - 10
19.06.2017 12:00:00 32,0 15,0 16 9 O - 10
19.06.2017 11:00:00 29,8 14,0 9 5 S 1019,8 20
19.06.2017 10:00:00 29,0 19,0 8 4 SO - 10
19.06.2017 09:00:00 27,0 20,0 5 3 OSO - 10
19.06.2017 08:00:00 24,2 19,5 8 4 NNE 1019,4 20
19.06.2017 07:00:00 20,0 19,0 8 4 NE - 10
19.06.2017 06:00:00 19,0 18,0 5 3 NNO - 10
19.06.2017 05:00:00 20,6 19,4 8 4 ENE 1018,1 16
19.06.2017 04:00:00 21,0 20,0 4 2 NE - 10
19.06.2017 03:00:00 22,0 20,0 4 2 ESE - 10
19.06.2017 02:00:00 23,2 20,9 4 2 SE 1018,1 15
19.06.2017 01:00:00 23,0 21,0 4 2 OSO - 10
19.06.2017 00:00:00 24,0 21,0 5 3 SSE - 10
18.06.2017 23:00:00 24,4 20,7 8 4 SE 1017,8 16
18.06.2017 22:00:00 25,0 21,0 15 8 SSE - 10
18.06.2017 21:00:00 26,0 22,0 18 10 SSE - 10
18.06.2017 20:00:00 27,8 21,8 21 11 S 1015,6 25
18.06.2017 19:00:00 29,0 23,0 22 12 S - 10
18.06.2017 18:00:00 30,0 23,0 21 11 SSE - 10
18.06.2017 17:00:00 30,2 22,1 26 14 S 1014,0 20
18.06.2017 16:00:00 34,0 21,0 24 13 SE - 10
18.06.2017 15:00:00 35,0 22,0 21 11 ESE - 10
18.06.2017 14:00:00 33,2 23,2 16 9 SSE 1013,8 20
18.06.2017 13:00:00 32,0 22,0 15 8 S - 10
18.06.2017 12:00:00 32,0 22,0 13 7 SSE - 10
18.06.2017 11:00:00 32,0 22,1 11 6 S 1013,8 20
18.06.2017 10:00:00 29,0 20,0 5 3 N - 10
18.06.2017 09:00:00 26,0 22,0 4 2 OSO - 10
18.06.2017 08:00:00 23,0 20,9 5 3 ONO 1012,8 20
18.06.2017 07:00:00 20,0 19,0 9 5 N - 10
18.06.2017 06:00:00 20,0 18,0 5 3 N - 10
18.06.2017 05:00:00 20,0 18,5 4 2 NNO 1012,0 20
18.06.2017 04:00:00 21,0 19,0 8 4 N - 10
18.06.2017 03:00:00 21,0 20,0 8 4 N - 10
18.06.2017 02:00:00 21,6 20,3 9 5 ONO 1011,7 20
18.06.2017 01:00:00 22,0 21,0 9 5 NO - 10
18.06.2017 00:00:00 23,0 21,0 15 8 NO - 10
17.06.2017 23:00:00 23,4 21,3 16 9 NNO 1011,9 20
17.06.2017 22:00:00 25,0 21,0 13 7 NO - 10
17.06.2017 21:00:00 27,0 22,0 9 5 NNO - 10
17.06.2017 20:00:00 29,0 21,5 16 9 NO 1010,6 30
17.06.2017 19:00:00 34,0 23,0 21 11 NNO - 10
17.06.2017 18:00:00 34,0 23,0 15 8 SSE - 10
17.06.2017 17:00:00 34,6 22,3 9 5 SSE 1010,2 25
17.06.2017 16:00:00 35,0 22,0 18 10 N - 10
17.06.2017 15:00:00 34,0 20,0 18 10 NNO - 10
17.06.2017 14:00:00 34,4 21,5 16 9 NO 1010,9 25
17.06.2017 13:00:00 34,0 22,0 13 7 NNO - 10
17.06.2017 12:00:00 33,0 23,0 11 6 NNO - 10
17.06.2017 11:00:00 30,6 24,0 15 8 NNO 1012,3 25
17.06.2017 10:00:00 29,0 24,0 16 9 NNO - 10
17.06.2017 09:00:00 27,0 23,0 11 6 NNO - 10
17.06.2017 08:00:00 25,8 23,7 8 4 NO 1013,0 25
17.06.2017 07:00:00 24,0 22,0 4 2 NNO - 10
17.06.2017 06:00:00 23,0 21,0 11 6 NNO - 10
17.06.2017 05:00:00 24,0 22,3 18 10 N 1014,1 12
17.06.2017 04:00:00 24,0 22,0 18 10 N - 10
17.06.2017 03:00:00 24,0 22,0 9 5 NNO - 10
17.06.2017 02:00:00 24,8 22,7 11 6 N 1014,4 12
17.06.2017 01:00:00 25,0 23,0 9 5 NNO - 10
17.06.2017 00:00:00 26,0 24,0 18 10 N - 10
16.06.2017 23:00:00 27,0 22,6 18 10 N 1014,3 12
16.06.2017 22:00:00 29,0 22,0 15 8 NNO - 10

tt = Temperatura
td = dewpoint
ff = velocità del vento
dd = direzione del vento
ppp = reduced air pressure
vv = visibility

Stazioni seguenti

WeatherPro
AMSI
MeteoEarth